Location: Camp at the Woods
(43.2055°N, 93.0905°W)
Time: 09:48:56
(UTC+00:00)

BlueWalker 3 - Pass Details

Date: 19 April 2024
Orbit: 482 x 494 km, 53.2° (Epoch: 22 May)

Event Time Altitude Azimuth Distance (km) Brightness Sun altitude
Rises 02:50:25 0° 247° (WSW) 2,564 6.0 -18.8°
Reaches altitude 10° 02:52:37 10° 253° (WSW) 1,687 5.1 -19.1°
Maximum altitude 02:56:20 50° 330° (NNW) 637 2.8 -19.7°
Drops below altitude 10° 03:00:06 10° 47° (NE) 1,701 4.5 -20.2°
Enters shadow 03:00:19 - 48° (NE) 1,787 4.6 -20.2°
